RH
16 15 14 13 13 12 11 9 9 10 11 11 10 10 10 10 10 10 10 11 11 11 11 12 12 11 11 11 11 11 11 11 11 11 10 9 9 10 11 12 14 14 14 14 12 11 11 11 12 13 13 13 13 13 12 13 13 13 17 19 17 18 16 19 21 19 18 17 17 17 17 20 22 24 26 28 30 29 27 26 27 28 30 32 33 32 32 32
15 15 14 14 13 12 11 9 9 10 10 10 10 10 9 9 9 9 10 10 11 11 11 11 11 11 11 12 12 12 12 11 10 9 9 9 9 10 11 12 14 14 14 13 11 11 11 11 12 13 12 12 13 13 13 13 13 15 18 19 18 18 17 18 19 18 19 18 17 18 18 21 24 26 29 29 30 28 27 28 28 32 35 35 35 33 31 31
15 14 14 14 13 13 11 9 9 10 11 10 10 9 9 9 9 9 10 10 10 10 11 11 11 11 12 11 11 11 10 10 10 9 9 9 8 9 11 11 13 13 13 12 11 11 11 11 12 12 12 12 12 13 14 14 14 15 16 18 17 17 19 19 17 17 19 18 18 19 21 25 26 28 29 29 31 29 28 30 31 37 39 36 34 31 30 31
15 14 14 14 13 14 13 9 9 10 11 11 10 10 9 9 10 10 10 10 10 10 10 11 11 11 11 11 11 10 9 11 12 12 10 10 9 10 11 12 13 13 12 12 12 12 11 11 11 11 12 12 12 12 13 14 14 15 15 16 16 17 20 18 16 17 19 19 18 19 23 25 26 28 28 29 31 30 30 30 29 35 36 34 32 31 31 31
14 14 14 14 13 14 13 11 11 12 12 11 10 10 9 9 9 10 10 10 10 10 10 11 11 11 10 10 9 8 10 15 15 13 11 10 10 11 12 11 12 12 11 12 12 12 11 10 10 11 12 13 12 11 12 13 14 15 14 14 15 18 20 18 16 17 18 19 19 20 23 23 25 27 27 28 29 29 28 28 27 28 31 30 30 30 30 28
15 14 14 13 14 16 17 16 15 14 13 12 12 11 10 10 9 10 10 10 10 10 10 11 10 10 9 8 7 8 14 17 15 13 11 11 10 11 11 12 11 11 11 12 11 11 10 10 10 11 11 12 12 11 13 13 14 14 14 13 15 19 18 17 17 17 17 19 20 22 23 22 25 28 27 26 26 25 23 25 25 24 25 27 29 29 28 27
14 15 15 16 17 20 22 21 19 17 15 14 13 12 11 10 10 10 10 10 10 10 10 9 9 9 8 7 9 11 14 15 15 14 12 11 11 11 11 11 11 10 10 10 10 9 9 10 11 12 12 12 12 12 13 14 14 14 14 13 15 18 17 16 17 17 17 20 22 23 23 22 23 25 25 23 23 24 23 24 25 25 27 28 29 28 28 27
16 19 20 21 21 22 23 23 22 19 18 16 14 13 11 10 10 10 10 10 9 9 9 8 8 8 8 9 11 13 13 14 15 13 12 11 10 9 9 9 9 9 8 9 8 8 9 11 12 13 13 14 13 13 14 15 16 15 14 14 15 17 17 16 16 17 18 21 23 24 25 23 21 22 23 23 22 24 25 25 26 29 32 31 29 28 28 25
21 23 23 22 22 21 22 22 22 20 19 17 16 13 12 10 10 10 10 10 9 9 9 9 9 8 8 10 14 16 15 14 13 11 11 11 8 7 7 7 7 7 7 7 7 9 11 13 14 14 15 16 15 15 16 17 18 16 15 15 15 16 16 16 16 17 18 21 23 23 24 23 22 21 22 23 23 24 26 25 27 29 32 31 29 27 26 22
23 23 22 22 21 21 21 22 22 21 19 17 17 15 13 11 10 10 10 11 11 11 10 10 9 8 8 10 15 19 16 13 13 10 9 9 8 7 7 7 7 6 7 8 9 12 14 15 16 16 16 17 18 18 17 17 18 16 16 15 14 15 16 16 16 17 18 21 23 23 23 22 21 20 21 22 23 24 25 26 27 27 29 29 27 25 24 21
22 22 22 22 21 20 21 22 21 21 19 17 16 15 14 11 10 10 10 11 11 11 11 10 9 9 9 11 16 20 16 14 14 11 9 9 9 8 8 8 8 8 9 11 12 15 16 16 17 17 18 18 18 18 17 17 17 16 16 16 15 16 16 16 16 17 19 23 24 24 22 20 18 18 19 21 24 25 25 27 24 23 26 25 24 23 22 21
21 21 22 22 21 21 20 22 22 22 21 19 16 15 13 12 11 10 10 11 11 11 11 11 10 9 10 12 17 19 16 15 15 11 10 11 10 11 11 10 11 12 12 14 14 15 16 16 16 17 17 17 18 17 17 17 16 15 16 16 17 17 16 16 17 17 19 22 21 21 22 22 20 17 19 23 25 27 27 26 23 23 23 22 23 22 22 21
19 19 21 21 21 21 21 22 22 22 22 22 19 16 14 12 11 11 11 12 11 11 11 11 11 11 12 15 18 18 16 16 14 13 12 12 12 12 11 12 13 13 15 15 14 15 15 15 16 17 16 17 18 17 17 17 16 16 16 16 18 19 18 16 17 17 18 19 19 20 24 28 24 17 20 26 26 26 28 26 24 23 22 21 23 22 21 20
18 18 20 20 21 21 21 22 22 23 22 23 23 20 17 14 13 12 12 12 11 12 13 12 12 12 14 17 18 16 16 16 15 14 13 13 13 12 11 12 13 15 16 16 15 16 15 16 16 17 17 18 18 17 18 18 17 17 16 19 20 18 19 18 17 17 17 19 21 23 25 27 24 17 18 23 23 24 27 26 24 21 21 21 22 22 21 21
16 18 18 18 19 20 21 21 22 22 21 22 22 22 21 18 15 13 13 13 13 12 13 13 14 15 17 19 18 17 17 17 15 15 14 13 13 13 13 12 13 15 16 16 16 15 16 16 16 17 18 18 19 19 20 21 21 21 17 22 25 20 20 21 18 18 18 19 20 21 22 22 22 17 17 21 22 22 23 23 22 20 21 22 23 23 22 22
14 16 17 16 16 17 19 20 21 21 21 21 21 22 24 23 19 16 15 14 14 13 12 14 16 18 21 20 19 19 20 18 16 15 15 14 14 14 14 13 14 14 15 16 16 16 17 17 17 17 17 17 20 21 22 24 26 26 20 21 24 21 21 21 19 19 19 19 18 17 19 19 20 18 18 22 23 22 22 22 21 21 21 23 24 23 22 22
13 15 15 16 15 14 15 17 20 21 20 22 21 21 25 25 22 19 17 15 15 15 14 14 16 19 20 19 19 20 20 19 16 16 16 15 14 15 15 15 14 14 15 16 16 17 17 17 17 17 19 22 25 24 23 26 28 28 27 24 25 22 21 21 21 19 18 18 17 16 17 18 21 20 19 23 23 23 23 23 22 21 21 22 23 23 22 22
13 14 15 15 15 14 14 15 17 19 20 21 21 22 25 26 24 21 19 18 17 15 16 16 16 20 22 19 20 21 20 19 18 16 16 15 15 15 15 15 15 15 15 15 16 17 16 17 18 19 24 26 26 25 25 27 25 24 28 28 28 27 24 24 24 22 19 19 18 17 18 18 21 22 20 21 23 25 25 24 23 23 23 23 24 23 23 23
13 14 15 15 15 15 14 14 15 16 18 20 20 23 25 24 26 24 21 20 19 16 18 18 17 23 25 22 23 22 21 21 20 17 15 15 14 14 15 15 15 15 15 17 18 17 17 19 20 20 23 24 24 25 25 26 24 24 28 28 26 26 25 26 26 25 23 21 20 21 21 21 22 24 22 20 21 23 25 26 25 26 27 26 26 26 25 25
13 13 14 14 15 15 15 14 14 15 17 18 18 22 24 24 27 28 24 21 20 18 20 20 20 24 25 24 25 24 22 21 21 19 16 16 15 15 16 14 15 15 16 19 20 18 18 20 22 22 22 23 26 28 27 26 26 26 29 28 26 26 25 26 26 28 28 24 24 26 25 25 25 26 25 21 21 23 27 31 32 31 31 30 31 30 28 27
14 14 13 13 13 14 14 14 14 15 16 17 18 20 22 22 23 25 24 23 21 19 22 24 23 24 24 23 24 25 25 24 22 21 18 18 17 17 17 16 15 17 20 21 19 20 20 20 23 24 25 25 29 33 31 28 30 30 30 27 27 30 29 29 31 35 34 27 28 31 29 29 29 30 30 24 22 25 29 35 37 34 33 31 31 31 31 30
13 13 13 12 12 13 14 14 15 16 17 17 17 19 20 19 20 21 21 24 24 20 21 23 23 24 23 22 23 23 26 27 24 23 22 21 21 20 19 19 17 19 22 21 20 23 23 23 25 26 27 28 31 36 33 32 35 34 32 29 30 33 32 34 38 41 39 33 31 32 30 32 34 33 33 29 26 26 27 31 34 33 32 31 31 33 34 34
13 13 12 11 12 12 13 15 15 17 17 17 17 18 19 19 20 20 20 23 25 23 22 22 23 23 22 23 22 21 23 26 24 23 23 24 24 23 22 22 21 22 22 22 22 23 24 29 31 32 32 30 31 35 32 33 36 35 32 31 34 36 35 37 40 42 42 38 34 34 33 35 38 35 33 31 28 27 26 28 31 32 32 32 32 35 36 37
13 13 12 12 11 12 13 15 15 15 15 15 16 17 19 22 22 22 23 26 29 28 25 23 24 25 25 26 25 23 23 23 23 23 23 23 24 24 23 24 23 23 23 25 27 24 25 32 34 36 39 36 34 36 34 30 33 36 36 35 38 40 39 39 41 43 46 45 41 38 37 40 42 37 34 33 30 31 31 30 33 34 32 32 33 33 34 35
14 13 12 12 11 12 13 14 14 13 13 14 15 17 19 21 23 24 29 35 38 37 29 27 29 30 30 30 28 27 25 24 25 24 24 23 23 23 22 21 22 24 26 28 29 26 26 30 31 32 38 39 37 38 40 38 37 39 42 42 42 42 42 43 44 45 46 48 46 40 42 48 46 40 39 38 37 37 37 36 37 36 34 32 34 34 32 33
14 12 11 11 11 13 13 12 12 12 13 13 14 16 17 20 22 24 35 46 46 40 34 33 35 35 34 33 31 30 30 30 29 28 28 27 24 22 22 21 20 23 28 29 28 28 28 31 33 32 35 38 37 37 42 44 42 42 44 45 44 44 43 43 43 43 44 47 49 48 48 50 47 43 43 41 39 40 41 41 41 41 39 35 34 33 31 32
12 11 10 10 11 13 12 10 11 13 14 13 14 17 17 20 22 25 40 50 47 43 41 38 37 37 36 35 36 35 35 34 31 30 32 29 26 25 24 24 20 19 24 26 26 28 28 31 35 36 36 38 38 38 43 46 44 43 46 47 47 44 43 44 43 44 47 45 49 55 51 46 46 45 45 44 42 40 40 41 43 44 43 39 34 31 30 30
11 10 10 10 9 11 11 10 12 14 14 13 15 16 18 22 25 32 45 47 44 45 45 42 40 38 37 37 37 36 33 32 30 32 33 30 28 28 27 26 24 23 22 22 25 29 28 27 32 37 37 37 39 42 46 46 44 46 49 48 47 44 44 46 44 45 49 44 46 55 48 43 48 47 46 46 40 38 38 37 39 40 38 36 31 28 27 27
10 10 10 11 11 11 11 12 14 14 15 13 13 15 21 29 32 38 47 45 43 45 43 42 41 38 38 37 35 33 31 29 30 31 32 30 30 29 28 26 27 26 23 22 25 28 28 26 30 35 35 37 41 46 48 45 42 45 47 44 43 46 46 46 44 45 49 46 47 52 46 42 48 49 46 42 35 35 36 32 32 31 32 31 27 26 26 27
10 10 10 13 16 16 14 15 16 15 14 11 11 14 22 37 43 42 43 42 43 43 39 39 39 35 35 33 32 32 29 27 29 29 29 29 29 29 28 27 27 28 30 30 27 27 27 26 30 31 32 37 40 42 43 40 38 38 38 37 38 44 45 46 48 43 43 47 48 50 47 44 49 51 47 41 36 34 33 31 30 29 29 29 26 25 25 27
10 10 10 12 16 17 15 14 14 14 13 10 12 17 27 40 48 45 39 36 40 40 34 34 35 32 29 28 29 29 27 26 26 26 27 26 26 28 27 28 29 32 38 36 27 27 27 25 30 30 30 34 34 34 35 35 37 35 35 37 37 40 42 43 46 39 39 46 43 42 44 42 45 46 43 40 37 33 32 31 31 31 30 28 26 27 28 29
10 10 10 12 14 14 13 12 13 13 13 12 12 21 35 42 43 43 36 31 37 38 33 32 30 26 23 23 24 25 23 23 23 23 24 24 26 27 26 29 31 31 37 38 32 31 29 26 29 29 28 30 29 32 33 34 37 34 34 38 37 38 39 41 44 41 41 42 36 35 37 35 38 38 36 37 35 31 32 32 32 32 30 28 27 29 31 31
13 13 14 15 16 16 14 13 13 12 13 15 14 22 38 42 38 39 36 31 33 34 32 30 27 24 23 22 22 22 21 21 22 21 22 22 23 25 26 29 30 28 32 37 36 35 35 35 33 27 28 29 28 32 35 35 37 35 36 39 41 41 41 45 49 43 40 39 36 38 35 34 37 36 34 37 35 33 33 32 33 32 31 32 31 31 31 31
16 17 18 18 18 18 18 15 13 12 14 16 16 21 31 37 36 36 33 31 30 29 28 28 27 25 23 20 19 19 20 21 21 21 22 21 20 24 27 28 28 30 35 37 37 37 36 37 37 33 33 33 32 36 39 40 42 41 41 40 42 45 43 45 46 39 36 38 38 37 36 37 38 37 37 37 37 38 37 37 37 34 34 34 34 34 34 33
16 19 19 19 19 17 19 17 14 14 15 17 21 25 28 33 38 36 31 30 29 28 29 30 29 27 26 25 23 20 20 22 23 23 24 22 22 27 29 29 29 33 36 36 38 38 34 34 37 35 36 37 38 42 43 44 45 47 46 42 42 45 45 45 45 43 42 42 42 41 41 45 46 43 42 39 37 39 39 39 40 39 37 37 37 38 37 37
17 19 17 18 19 18 18 18 16 15 16 21 24 26 32 36 36 33 28 26 25 27 30 31 30 30 29 29 29 23 21 22 23 25 26 25 26 29 29 30 30 30 32 36 40 40 36 37 39 35 35 37 39 43 42 41 47 51 48 47 47 46 44 45 46 49 49 47 49 47 44 49 50 47 45 43 42 41 40 41 42 43 43 42 43 44 42 42
15 17 18 18 19 20 19 17 15 13 17 25 27 29 37 37 30 26 24 22 22 24 28 29 28 28 27 26 27 22 20 23 25 25 27 29 29 30 31 30 29 29 32 34 37 39 38 40 42 38 37 38 39 40 40 38 45 50 49 51 52 50 50 49 47 53 57 54 55 52 46 49 50 48 47 44 43 43 42 43 43 44 44 45 46 46 46 46
14 16 19 19 19 21 21 17 14 13 20 32 35 37 39 34 26 23 21 21 22 24 28 30 27 26 23 22 23 21 18 22 25 24 28 30 28 30 33 32 32 33 36 36 38 41 41 41 44 42 40 42 43 43 44 43 43 46 48 49 51 54 57 54 52 57 59 59 62 59 52 49 47 47 46 43 42 42 39 39 40 40 38 38 41 42 44 46
13 16 19 19 18 20 21 18 15 17 25 35 40 39 37 33 26 22 20 23 25 25 27 27 26 25 24 22 22 20 17 18 21 22 25 28 28 29 31 32 33 36 38 40 42 47 46 42 45 45 41 42 48 51 52 52 49 47 49 50 52 56 57 53 54 55 54 59 65 60 51 48 45 44 42 41 42 39 37 37 37 36 35 34 36 40 43 44
13 18 21 18 18 19 17 16 16 20 25 33 39 37 33 31 27 22 21 23 24 25 26 26 25 25 25 24 22 19 17 17 17 18 21 23 25 27 28 29 31 32 36 40 44 48 50 45 47 50 44 40 46 52 55 57 56 55 55 54 54 57 56 52 51 51 50 57 64 59 51 47 45 44 40 38 39 38 36 37 36 34 37 37 37 39 41 40
14 19 22 19 18 17 15 15 19 25 29 33 35 32 27 27 26 24 22 23 24 25 25 26 26 26 27 25 23 20 18 18 18 17 20 20 20 23 24 25 27 27 31 36 40 43 46 47 49 51 46 42 46 48 49 53 57 58 57 57 57 58 58 55 54 55 53 53 59 60 55 51 49 48 45 42 43 41 39 38 36 35 38 40 41 41 40 40
15 18 20 18 17 16 15 19 23 26 28 27 26 25 24 24 25 24 24 25 26 26 25 26 26 28 30 27 24 21 19 20 20 19 20 20 20 22 23 24 25 25 27 32 35 38 42 46 46 46 47 47 48 47 46 47 51 53 55 57 59 59 58 57 59 63 59 54 56 58 56 57 56 55 52 48 47 44 40 38 37 35 36 39 43 44 43 43
17 17 16 17 17 15 17 25 29 28 25 23 21 22 23 22 23 23 22 23 24 22 23 24 23 24 25 23 21 20 20 21 21 20 21 21 20 22 23 25 25 26 27 29 31 35 40 44 43 45 49 47 43 43 43 42 42 45 48 53 56 56 57 58 61 65 63 60 62 61 59 61 62 61 57 50 47 45 41 40 39 36 35 36 39 43 44 44
16 15 16 17 16 15 18 25 28 28 28 24 22 21 21 21 20 20 20 19 19 19 19 20 20 19 20 21 22 20 20 22 22 22 23 22 21 23 24 25 28 30 28 30 33 33 37 44 44 45 47 45 43 41 38 37 38 38 40 46 50 50 50 50 53 55 57 58 62 64 63 63 62 62 61 55 50 48 44 41 40 38 35 33 35 40 42 41
15 15 15 16 14 15 21 24 24 26 27 24 24 25 22 20 19 19 19 17 17 18 18 19 19 19 22 23 23 22 23 23 24 25 27 27 27 28 29 29 32 35 35 36 38 36 40 47 47 47 49 48 47 44 39 38 38 35 34 37 39 40 40 42 43 45 49 53 56 57 60 63 62 59 60 60 55 50 45 42 38 37 36 34 33 36 39 39
17 18 18 18 15 15 19 21 22 26 27 25 28 28 23 21 21 19 19 19 19 19 20 21 22 23 26 27 27 29 29 28 30 31 34 36 37 36 35 36 36 39 41 40 41 45 49 51 51 51 52 48 45 42 41 41 36 32 34 35 35 37 38 40 42 43 48 52 49 47 50 55 56 55 55 56 56 52 46 42 38 36 36 36 35 35 36 37
18 21 23 21 19 20 23 24 25 29 29 27 28 28 24 24 23 21 21 22 22 23 26 27 27 29 31 31 32 34 36 38 40 40 42 44 45 43 40 39 40 41 42 40 41 47 52 51 51 51 50 48 45 43 43 43 38 35 37 38 39 40 39 39 42 46 51 52 46 45 48 46 45 49 50 48 50 52 49 45 42 40 39 38 37 37 36 35
18 22 24 23 22 25 26 25 27 31 29 27 30 29 26 27 28 27 27 26 27 28 31 34 33 34 35 35 36 38 41 45 47 48 49 48 48 48 44 44 44 41 42 43 44 47 49 50 52 52 50 51 50 48 48 48 46 44 43 43 45 44 41 40 43 46 50 50 45 46 50 46 42 46 47 44 44 46 47 46 45 44 43 41 39 38 36 34
21 24 25 24 24 25 25 25 27 30 29 30 33 32 30 31 32 32 30 30 33 35 37 40 40 39 40 42 45 47 48 50 50 53 53 50 50 51 47 48 47 43 42 45 47 49 51 54 56 54 52 52 51 52 53 52 50 49 48 49 49 49 47 43 43 46 46 44 43 45 48 48 45 47 47 44 43 44 45 45 43 42 43 42 40 38 37 36
26 29 30 28 29 30 29 29 30 32 33 33 34 34 33 34 34 34 32 32 37 40 42 45 46 44 47 51 53 54 54 53 53 53 52 52 54 54 51 50 49 46 44 46 49 50 51 58 61 57 55 55 54 54 54 53 53 53 51 52 52 53 52 46 43 45 44 42 42 42 43 44 46 45 44 42 42 43 43 43 41 41 41 41 40 39 38 37
30 33 33 35 36 36 35 33 33 37 37 36 37 37 37 37 37 39 41 39 41 45 47 49 50 50 52 55 56 56 55 56 56 55 53 53 54 54 53 52 50 47 48 49 51 52 54 60 63 61 59 58 55 55 55 54 55 53 51 53 53 54 55 51 46 46 45 43 43 40 39 43 45 43 44 45 44 44 44 44 42 41 40 39 39 39 39 37
32 33 34 37 39 40 40 38 39 41 40 38 41 42 43 45 46 48 50 49 47 48 49 51 52 53 54 55 55 55 54 52 53 52 50 49 50 50 49 50 50 50 53 54 53 55 57 57 60 63 60 56 54 55 55 55 56 53 51 51 50 50 52 49 47 48 48 45 44 42 43 46 48 47 49 51 51 48 46 45 43 41 41 41 40 38 36 34